Location: Bukit Lungun
(2.6833°N, 113.9667°E)
Time: 11:34:03
(UTC+00:00)

Cosmos 2219 - Pass Details

Date: 02 March 2021
Orbit: 835 x 859 km, 71.1° (Epoch: 20 April)

Event Time Altitude Azimuth Distance (km) Brightness Sun altitude
Rises 21:52:13 0° 189° (S) 3,422 6.3 -11.2°
Reaches altitude 10° 21:54:42 10° 185° (S) 2,482 5.7 -10.6°
Maximum altitude 22:00:20 62° 105° (ESE) 949 3.8 -9.2°
Drops below altitude 10° 22:05:54 10° 25° (NNE) 2,459 5.9 -7.8°
Sets 22:08:21 0° 22° (NNE) 3,389 6.6 -7.2°
